Location: Cicognara
(44.9500°N, 10.4667°E)
Time: 15:11:14
(UTC+00:00)

Cosmos 2016 Rocket - Pass Details

Date: 20 June 2021
Orbit: 947 x 1000 km, 83.0° (Epoch: 02 August)

Event Time Altitude Azimuth Distance (km) Brightness Sun altitude
Rises 20:12:32 0° 355° (N) 3,628 7.9 -9.4°
Reaches altitude 10° 20:15:07 10° 1° (N) 2,680 7.0 -9.7°
Maximum altitude 20:21:04 52° 77° (ENE) 1,171 4.3 -10.4°
Enters shadow 20:26:19 13° 151° (SSE) 2,430 5.4 -11.0°
